Hourly Weather Gogoliha

Today, 18 May, Tuesday

Time Temperature Precipitation Wind Pressure Humidity
00:00 +19°C° 0 mm 3 mps 754 mmHg 70%
01:00 +19°C° 0 mm 3 mps 754 mmHg 75%
02:00 +18°C° 0 mm 2 mps 754 mmHg 79%
03:00 +18°C° 0 mm 2 mps 754 mmHg 84%
04:00 +19°C° 0 mm 2 mps 754 mmHg 80%
05:00 +20°C° 0 mm 2 mps 754 mmHg 76%
06:00 +21°C° 0 mm 2 mps 754 mmHg 72%
07:00 +29°C° 0 mm 2 mps 754 mmHg 47%
08:00 +28°C° 0 mm 2 mps 754 mmHg 49%
09:00 +27°C° 0 mm 2 mps 754 mmHg 52%
10:00 +28°C° 0 mm 2 mps 754 mmHg 49%
11:00 +29°C° 0 mm 2 mps 754 mmHg 47%
12:00 +30°C° 0 mm 2 mps 754 mmHg 44%
13:00 +30°C° 0 mm 3 mps 754 mmHg 44%
14:00 +30°C° 0 mm 3 mps 754 mmHg 44%
15:00 +30°C° 0 mm 4 mps 754 mmHg 44%
16:00 +29°C° 0 mm 4 mps 754 mmHg 50%
17:00 +28°C° 0 mm 4 mps 754 mmHg 55%
18:00 +26°C° 0 mm 4 mps 754 mmHg 61%
19:00 +25°C° 0 mm 4 mps 754 mmHg 62%
20:00 +22°C° 0 mm 5 mps 754 mmHg 64%
21:00 +21°C° 0 mm 5 mps 754 mmHg 65%
22:00 +20°C° 0 mm 4 mps 754 mmHg 66%
23:00 +19°C° 0 mm 4 mps 754 mmHg 66%

Tomorrow, 19 May, Wednesday

Time Temperature Precipitation Wind Pressure Humidity
00:00 +18°C° 0 mm 3 mps 754 mmHg 67%
01:00 +18°C° 0 mm 4 mps 755 mmHg 69%
02:00 +17°C° 0 mm 4 mps 755 mmHg 71%
03:00 +17°C° 0 mm 4 mps 755 mmHg 73%
04:00 +17°C° 0 mm 4 mps 755 mmHg 73%
05:00 +17°C° 0 mm 5 mps 755 mmHg 73%
06:00 +17°C° 0 mm 5 mps 755 mmHg 72%
07:00 +20°C° 0 mm 5 mps 755 mmHg 66%
08:00 +21°C° 0 mm 6 mps 755 mmHg 60%
09:00 +23°C° 0 mm 6 mps 755 mmHg 54%
10:00 +24°C° 0 mm 6 mps 755 mmHg 50%
11:00 +26°C° 0 mm 6 mps 755 mmHg 46%
12:00 +27°C° 0 mm 6 mps 755 mmHg 42%
13:00 +27°C° 0 mm 6 mps 755 mmHg 42%
14:00 +28°C° 0 mm 6 mps 754 mmHg 42%
15:00 +28°C° 0 mm 5 mps 754 mmHg 41%
16:00 +27°C° 0 mm 5 mps 754 mmHg 47%
17:00 +26°C° 0 mm 4 mps 754 mmHg 52%
18:00 +25°C° 0 mm 4 mps 754 mmHg 58%
19:00 +23°C° 0 mm 4 mps 755 mmHg 61%
20:00 +21°C° 0 mm 4 mps 755 mmHg 64%
21:00 +19°C° 0 mm 4 mps 755 mmHg 67%
22:00 +19°C° 0 mm 4 mps 755 mmHg 67%
23:00 +18°C° 0 mm 4 mps 755 mmHg 66%

Day after tomorrow, 20 May, Thursday

Time Temperature Precipitation Wind Pressure Humidity
00:00 +18°C° 0 mm 4 mps 755 mmHg 66%
01:00 +17°C° 0 mm 4 mps 755 mmHg 67%
02:00 +17°C° 0 mm 4 mps 755 mmHg 68%
03:00 +15°C° 0 mm 4 mps 755 mmHg 69%
04:00 +17°C° 0 mm 4 mps 756 mmHg 68%
05:00 +16°C° 0 mm 5 mps 756 mmHg 67%
06:00 +17°C° 0 mm 5 mps 756 mmHg 65%
07:00 +19°C° 0 mm 6 mps 756 mmHg 59%
08:00 +21°C° 0 mm 6 mps 756 mmHg 53%
09:00 +22°C° 0 mm 7 mps 756 mmHg 47%
10:00 +23°C° 0 mm 7 mps 756 mmHg 44%
11:00 +24°C° 0 mm 7 mps 755 mmHg 42%
12:00 +26°C° 0 mm 7 mps 755 mmHg 39%
13:00 +26°C° 0 mm 7 mps 755 mmHg 40%
14:00 +26°C° 0 mm 7 mps 755 mmHg 40%
15:00 +26°C° 0 mm 7 mps 755 mmHg 41%
16:00 +24°C° 0 mm 6 mps 755 mmHg 44%
17:00 +23°C° 0 mm 6 mps 755 mmHg 47%
18:00 +22°C° 0 mm 6 mps 754 mmHg 50%
19:00 +21°C° 0 mm 5 mps 754 mmHg 53%
20:00 +19°C° 0 mm 5 mps 754 mmHg 56%
21:00 +18°C° 0 mm 4 mps 754 mmHg 58%
22:00 +17°C° 0 mm 4 mps 755 mmHg 62%
23:00 +16°C° 0 mm 3 mps 755 mmHg 65%

21 May, Friday

Time Temperature Precipitation Wind Pressure Humidity
00:00 +14°C° 0 mm 3 mps 755 mmHg 68%
01:00 +14°C° 0 mm 3 mps 755 mmHg 69%
02:00 +13°C° 0 mm 3 mps 755 mmHg 70%
03:00 +13°C° 0 mm 3 mps 755 mmHg 71%
04:00 +14°C° 0 mm 3 mps 755 mmHg 70%
05:00 +16°C° 0 mm 3 mps 755 mmHg 68%
06:00 +17°C° 0 mm 3 mps 755 mmHg 67%
07:00 +18°C° 0 mm 4 mps 755 mmHg 65%
08:00 +19°C° 0 mm 4 mps 755 mmHg 63%
09:00 +20°C° 0 mm 4 mps 755 mmHg 61%
10:00 +21°C° 0.1 mm 4 mps 755 mmHg 59%
11:00 +22°C° 0.1 mm 4 mps 755 mmHg 57%
12:00 +25°C° 0.1 mm 4 mps 755 mmHg 55%
13:00 +25°C° 0.3 mm 4 mps 756 mmHg 55%
14:00 +25°C° 0.3 mm 4 mps 756 mmHg 54%
15:00 +25°C° 0.3 mm 4 mps 756 mmHg 54%
16:00 +24°C° 0 mm 3 mps 756 mmHg 58%
17:00 +24°C° 0 mm 3 mps 756 mmHg 62%
18:00 +23°C° 0 mm 2 mps 756 mmHg 65%
19:00 +21°C° 0 mm 2 mps 756 mmHg 68%
20:00 +19°C° 0 mm 2 mps 756 mmHg 71%
21:00 +18°C° 0 mm 2 mps 756 mmHg 74%
22:00 +17°C° 0 mm 2 mps 757 mmHg 76%
23:00 +16°C° 0 mm 2 mps 757 mmHg 78%

22 May, Saturday

Time Temperature Precipitation Wind Pressure Humidity
00:00 +16°C° 0 mm 2 mps 757 mmHg 80%
01:00 +15°C° 0 mm 2 mps 757 mmHg 81%
02:00 +15°C° 0 mm 2 mps 757 mmHg 82%
03:00 +15°C° 0 mm 2 mps 758 mmHg 84%
04:00 +16°C° 0 mm 2 mps 758 mmHg 80%
05:00 +17°C° 0 mm 2 mps 758 mmHg 77%
06:00 +19°C° 0 mm 1 mps 759 mmHg 73%
07:00 +20°C° 0 mm 2 mps 759 mmHg 68%
08:00 +21°C° 0 mm 2 mps 759 mmHg 63%
09:00 +24°C° 0 mm 2 mps 759 mmHg 57%
10:00 +25°C° 0 mm 2 mps 759 mmHg 54%
11:00 +26°C° 0 mm 3 mps 758 mmHg 50%
12:00 +27°C° 0 mm 3 mps 758 mmHg 46%
13:00 +27°C° 0 mm 3 mps 758 mmHg 46%
14:00 +27°C° 0 mm 3 mps 758 mmHg 46%
15:00 +27°C° 0 mm 3 mps 758 mmHg 46%
16:00 +24°C° 0 mm 3 mps 754 mmHg 64%
17:00 +22°C° 0 mm 3 mps 753 mmHg 70%
18:00 +21°C° 0 mm 2 mps 753 mmHg 76%
19:00 +19°C° 0.2 mm 3 mps 753 mmHg 81%
20:00 +18°C° 0.2 mm 3 mps 753 mmHg 86%
21:00 +16°C° 0.2 mm 3 mps 754 mmHg 91%
22:00 +14°C° 0.4 mm 3 mps 754 mmHg 92%
23:00 +14°C° 0.4 mm 4 mps 754 mmHg 94%

23 May, Sunday

Time Temperature Precipitation Wind Pressure Humidity
00:00 +14°C° 0.4 mm 4 mps 754 mmHg 95%
01:00 +13°C° 0.4 mm 3 mps 754 mmHg 96%
02:00 +13°C° 0.4 mm 3 mps 755 mmHg 96%
03:00 +13°C° 0.4 mm 3 mps 755 mmHg 96%
04:00 +13°C° 0.3 mm 3 mps 755 mmHg 95%
05:00 +13°C° 0.3 mm 3 mps 755 mmHg 94%
06:00 +15°C° 0.3 mm 2 mps 755 mmHg 93%
07:00 +15°C° 0.2 mm 2 mps 755 mmHg 91%
08:00 +16°C° 0.2 mm 2 mps 756 mmHg 88%
09:00 +17°C° 0.2 mm 2 mps 756 mmHg 86%
10:00 +17°C° 0.4 mm 2 mps 756 mmHg 84%
11:00 +18°C° 0.4 mm 2 mps 756 mmHg 82%
12:00 +18°C° 0.4 mm 2 mps 756 mmHg 80%
13:00 +19°C° 0 mm 2 mps 756 mmHg 77%
14:00 +19°C° 0 mm 3 mps 756 mmHg 73%
15:00 +20°C° 0 mm 3 mps 756 mmHg 70%
16:00 +19°C° 0 mm 2 mps 756 mmHg 72%
17:00 +19°C° 0 mm 2 mps 756 mmHg 74%
18:00 +19°C° 0 mm 2 mps 756 mmHg 76%
19:00 +18°C° 0 mm 2 mps 757 mmHg 78%
20:00 +17°C° 0 mm 2 mps 757 mmHg 79%
21:00 +16°C° 0 mm 2 mps 757 mmHg 80%
22:00 +16°C° 0 mm 2 mps 757 mmHg 81%
23:00 +14°C° 0 mm 3 mps 757 mmHg 82%
Show more